This demonstration page uses our WeatherBlox Daily Observations layout. Learn more.

Hourly Observations for December 29, 2017

Temp ( °F °C ) Dew Point ( °F °C ) Humidity (%) Winds ( mph kmh ) Pressure ( in mb ) Visibility ( mi km ) Precip ( " mm )
12:53 am 00:53 Clear 13 -10.6 8 -13.3 81 81 Calm 30.41 1030 10 16.0934 0 0
1:53 am 01:53 Cloudy 17 -8.3 12 -11.1 80 80 Calm 30.39 1029 10 16.0934 0 0
2:53 am 02:53 Cloudy 18 -7.8 10 -12.2 71 71 W 5 7 30.41 1030 10 16.0934 0 0
3:53 am 03:53 Cloudy 19 -7.2 9 -12.8 65 65 WSW 3 6 30.4 1030 10 16.0934 0 0
4:53 am 04:53 Cloudy 19 -7.2 10 -12.2 68 68 SW 3 6 30.4 1029 10 16.0934 0 0
5:53 am 05:53 Cloudy 20 -6.7 9 -12.8 62 62 WSW 6 9 30.4 1029 10 16.0934 0 0
6:53 am 06:53 Cloudy 20 -6.7 10 -12.2 65 65 WSW 6 9 30.41 1030 10 16.0934 0 0
7:53 am 07:53 Cloudy 21 -6.1 10 -12.2 62 62 W 5 7 30.4 1030 10 16.0934 0 0
8:39 am 08:39 Cloudy 21 -6.1 11 -11.7 65 65 W 9 15 30.42 1030 10 16.0934 0 0
8:53 am 08:53 Cloudy 21 -6.1 11 -11.7 65 65 W 9 15 30.44 1031 10 16.0934 0 0
9:25 am 09:25 Cloudy 21 -6.1 12 -11.1 68 68 W 10 17 30.42 1030 9 14.48406 0 0.0254
9:53 am 09:53 Cloudy 21 -6.1 12 -11.1 68 68 W 8 13 30.43 1030 8 12.87472 0 0.0254
10:53 am 10:53 Cloudy 22 -5.6 12 -11.1 66 66 W 9 15 30.45 1031 10 16.0934 0 0
11:53 am 11:53 Cloudy 23 -5 13 -10.6 65 65 WSW 8 13 30.41 1030 10 16.0934 0 0
12:53 pm 12:53 Mostly Sunny 24 -4.4 13 -10.6 62 62 VRB 5 7 30.38 1029 10 16.0934 0 0
1:53 pm 13:53 Mostly Cloudy 25 -3.9 13 -10.6 60 60 W 3 6 30.36 1028 10 16.0934 0 0
2:53 pm 14:53 Cloudy 25 -3.9 14 -10 63 63 WSW 5 7 30.34 1027 10 16.0934 0 0
3:53 pm 15:53 Cloudy 25 -3.9 14 -10 63 63 VRB 6 9 30.35 1028 9 14.48406 0 0
4:19 pm 16:19 Cloudy with Light Snow 24 -4.4 17 -8.3 75 75 SW 3 6 30.33 1027 2 3.21868 0 0.0254
4:25 pm 16:25 Cloudy with Light Snow 24 -4.4 18 -7.8 77 77 WSW 5 7 30.33 1027 1.5 2.41401 0 0.0254
4:42 pm 16:42 Mostly Cloudy with Light Snow 23 -5 19 -7.2 85 85 Calm 30.33 1027 0.75 1.207005 0 0.0254
4:53 pm 16:53 Mostly Cloudy with Light Snow 23 -5 20 -6.7 88 88 Calm 30.31 1026 0.75 1.207005 0 0.0254
5:11 pm 17:11 Cloudy with Light Snow 23 -5 20 -6.7 88 88 Calm 30.3 1026 1.25 2.011675 0 0.0254
5:20 pm 17:20 Cloudy with Light Snow 23 -5 21 -6.1 92 92 Calm 30.3 1026 2 3.21868 0.01 0.254
5:31 pm 17:31 Cloudy with Light Snow 23 -5 21 -6.1 92 92 Calm 30.3 1026 1.5 2.41401 0.01 0.254
5:44 pm 17:44 Mostly Cloudy with Light Snow 23 -5 21 -6.1 92 92 Calm 30.3 1026 0.75 1.207005 0.02 0.508
5:53 pm 17:53 Mostly Cloudy with Light Snow 23 -5 21 -6.1 92 92 WNW 5 7 30.32 1027 0.75 1.207005 0.03 0.762
6:05 pm 18:05 Mostly Cloudy with Light Snow 23 -5 21 -6.1 92 92 WNW 6 9 30.33 1027 0.75 1.207005 0.01 0.254
6:18 pm 18:18 Mostly Cloudy with Light Snow 23 -5 21 -6.1 92 92 NW 6 9 30.33 1027 1 1.60934 0.02 0.508
6:40 pm 18:40 Cloudy with Light Snow 23 -5 21 -6.1 92 92 NW 5 7 30.33 1027 1.25 2.011675 0.03 0.762
6:53 pm 18:53 Mostly Cloudy with Light Snow 23 -5 21 -6.1 92 92 NNW 3 6 30.32 1027 1 1.60934 0.04 1.016
7:24 pm 19:24 Mostly Cloudy with Light Snow 22 -5.6 20 -6.7 92 92 N 3 6 30.3 1026 1 1.60934 0.02 0.508
7:33 pm 19:33 Mostly Cloudy with Light Snow 22 -5.6 20 -6.7 92 92 Calm 30.3 1026 1 1.60934 0.02 0.508
7:46 pm 19:46 Cloudy with Light Snow 22 -5.6 20 -6.7 92 92 Calm 30.3 1026 2 3.21868 0.02 0.508
7:53 pm 19:53 Cloudy with Light Snow 22 -5.6 20 -6.7 92 92 Calm 30.3 1026 2 3.21868 0.02 0.508
8:01 pm 20:01 Cloudy with Light Snow 22 -5.6 20 -6.7 92 92 Calm 30.3 1026 1.75 2.816345 0 0.0254
8:10 pm 20:10 Cloudy with Light Snow 22 -5.6 20 -6.7 92 92 NNW 3 6 30.3 1026 2.5 4.02335 0 0.0254
8:17 pm 20:17 Cloudy with Light Snow 22 -5.6 20 -6.7 92 92 N 5 7 30.3 1026 4 6.43736 0 0.0254
8:53 pm 20:53 Cloudy 22 -5.6 19 -7.2 89 89 E 3 6 30.28 1025 8 12.87472 0 0.0254
9:53 pm 21:53 Cloudy 21 -6.1 19 -7.2 92 92 NNW 3 6 30.27 1025 8 12.87472 0.01 0.254
10:28 pm 22:28 Cloudy 21 -6.1 19 -7.2 92 92 NE 5 7 30.24 1024 7 11.26538 0 0
10:39 pm 22:39 Cloudy 21 -6.1 18 -7.8 88 88 NNE 6 9 30.24 1024 7 11.26538 0 0
10:53 pm 22:53 Cloudy 21 -6.1 18 -7.8 88 88 NE 5 7 30.23 1024 8 12.87472 0 0
11:29 pm 23:29 Cloudy 21 -6.1 18 -7.8 88 88 E 5 7 30.21 1023 7 11.26538 0 0
11:53 pm 23:53 Cloudy 21 -6.1 17 -8.3 85 85 NW 3 6 30.23 1024 7 11.26538 0 0

Powered by AerisWeather